Location: Hermaringen
(48.5952°N, 10.2585°E)
Time: 13:08:04
(UTC+00:00)

SR - Pass Details

Date: 25 February 2026
Orbit: 572 x 849 km, 66.7° (Epoch: 12 March)

Event Time Altitude Azimuth Distance (km) Brightness Sun altitude
Rises 11:47:01 0° 314° (NW) 3,125 ? 32.3°
Reaches altitude 10° 11:49:43 10° 300° (WNW) 2,250 ? 32.3°
Maximum altitude 11:53:43 23° 249° (WSW) 1,590 ? 32.2°
Drops below altitude 10° 11:57:55 10° 199° (SSW) 2,370 ? 32.1°
Sets 12:00:50 0° 185° (S) 3,333 ? 32.1°
